Tracking 30260 objects as of 15-Feb-2025
HD Live streaming from Space Station
objects crossing your sky now

JIELONG 3 DEB

Track JIELONG 3 DEB now!
10-day predictions


NORAD ID: 62575
Int'l Code: 2025-007A
Perigee: 646.2 km
Apogee: 663.4 km
Inclination: 55.0 °
Period: 97.7 minutes
Semi major axis: 7025 km
RCS: Unknown
Launch date: January 13, 2025
Source: People's Republic of China (PRC)
Launch site: Yellow Sea Launch Area, China (YSLA)

Note: This is SATELLITE DEBRIS
Your satellite tracking list
Your tracking list is empty




NASA's NSSDC Master Catalog

Two Line Element Set (TLE):
1 62575U 25007A   25045.92242856  .00004072  00000-0  64204-3 0  9995
2 62575  54.9860 354.6146 0012213 351.9218   8.1583 14.74214961  4846
Source of the keplerian elements: AFSPC